RH
19 15 11 13 16 15 12 9 9 9 10 10 10 11 11 13 13 13 13 13 14 14 14 14 14 15 15 15 15 15 16 17
25 23 18 15 12 15 17 15 12 11 11 12 12 12 12 12 13 13 13 13 12 13 13 13 13 13 13 13 13 13 14 15
30 28 26 22 18 15 14 17 17 15 12 12 13 13 13 14 14 14 14 14 13 13 13 12 12 12 13 13 13 13 13 14
36 33 31 27 25 23 19 14 16 18 17 15 14 14 14 15 15 15 16 16 15 14 14 14 13 12 13 13 12 13 13 13
42 39 35 32 29 28 25 24 17 16 18 19 18 17 16 16 16 16 17 16 16 16 15 15 14 13 13 13 14 17 18 16
41 41 41 37 34 33 31 30 28 23 18 20 22 21 20 18 17 18 19 18 18 17 16 15 15 14 14 14 17 19 22 21
43 46 41 38 40 37 36 34 34 33 29 23 21 22 23 22 21 22 20 21 21 20 17 16 15 16 15 15 17 23 27 26
35 45 42 38 38 43 42 42 40 37 36 33 30 26 23 23 24 25 26 25 24 23 23 22 19 20 20 21 23 26 27 29
36 47 49 44 42 43 52 51 51 49 45 42 39 36 33 32 28 25 24 24 26 25 23 24 24 24 25 28 30 32 34 37
37 48 57 55 45 46 46 51 58 57 56 54 51 48 44 41 37 34 30 26 25 25 26 26 27 27 29 32 35 38 40 44
35 47 56 59 57 55 51 52 50 52 57 60 58 58 58 54 49 43 41 38 32 29 30 32 34 34 33 37 44 49 48 50
39 40 46 53 56 58 62 58 52 51 50 51 54 57 58 59 63 58 53 51 45 40 41 44 42 41 46 47 53 58 57 55
40 38 40 47 48 54 58 55 63 55 49 47 49 53 56 57 57 64 61 55 55 56 52 49 49 57 56 61 59 64 67 60
27 39 40 38 49 54 54 52 53 53 54 51 52 51 53 55 56 59 63 65 59 56 52 53 52 55 62 72 74 70 73 66
21 27 35 40 37 39 51 57 55 52 49 54 56 55 52 52 52 53 55 60 63 62 63 60 61 60 62 61 73 63 73 74
21 21 31 31 32 40 47 45 51 55 58 50 59 65 59 55 53 52 54 57 60 62 71 69 66 61 62 61 64 67 76 71
27 23 29 27 27 33 39 46 53 50 47 53 50 60 62 59 55 57 61 60 59 62 66 68 69 66 61 60 61 65 69 74
30 28 32 32 25 29 36 39 45 48 50 52 53 59 60 60 64 60 62 64 60 62 63 66 69 67 68 68 67 74 79 85
21 22 25 29 23 27 33 37 42 50 51 54 61 68 68 75 68 75 69 71 74 66 67 71 71 77 77 77 81 84 92 93
22 19 20 24 23 27 34 36 46 54 61 60 68 81 81 82 85 82 82 80 77 73 74 75 75 79 82 81 83 84 80 94